Index of /20260430/WXO-DD/model_rdps/10km/00/013
Name Last modified Size Description
Parent Directory -
20260430T00Z_MSC_RDPS_AbsoluteVorticity_IsbL-0250_RLatLon0.09_PT013H.grib2 2026-04-30 02:43 763K
20260430T00Z_MSC_RDPS_AbsoluteVorticity_IsbL-0500_RLatLon0.09_PT013H.grib2 2026-04-30 02:43 576K
20260430T00Z_MSC_RDPS_AbsoluteVorticity_IsbL-0700_RLatLon0.09_PT013H.grib2 2026-04-30 02:43 624K
20260430T00Z_MSC_RDPS_AbsoluteVorticity_IsbL-0850_RLatLon0.09_PT013H.grib2 2026-04-30 02:43 777K
20260430T00Z_MSC_RDPS_AirTemp_AGL-120m_RLatLon0.09_PT013H.grib2 2026-04-30 02:43 398K
20260430T00Z_MSC_RDPS_AirTemp_AGL-2m_RLatLon0.09_PT013H.grib2 2026-04-30 02:43 637K
20260430T00Z_MSC_RDPS_AirTemp_AGL-40m_RLatLon0.09_PT013H.grib2 2026-04-30 02:43 399K
20260430T00Z_MSC_RDPS_AirTemp_AGL-80m_RLatLon0.09_PT013H.grib2 2026-04-30 02:43 390K
20260430T00Z_MSC_RDPS_AirTemp_IsbL-0001_RLatLon0.09_PT013H.grib2 2026-04-30 02:43 310K
20260430T00Z_MSC_RDPS_AirTemp_IsbL-0005_RLatLon0.09_PT013H.grib2 2026-04-30 02:43 286K
20260430T00Z_MSC_RDPS_AirTemp_IsbL-0010_RLatLon0.09_PT013H.grib2 2026-04-30 02:43 297K
20260430T00Z_MSC_RDPS_AirTemp_IsbL-0020_RLatLon0.09_PT013H.grib2 2026-04-30 02:43 311K
20260430T00Z_MSC_RDPS_AirTemp_IsbL-0030_RLatLon0.09_PT013H.grib2 2026-04-30 02:43 334K
20260430T00Z_MSC_RDPS_AirTemp_IsbL-0050_RLatLon0.09_PT013H.grib2 2026-04-30 02:43 311K
20260430T00Z_MSC_RDPS_AirTemp_IsbL-0100_RLatLon0.09_PT013H.grib2 2026-04-30 02:43 424K
20260430T00Z_MSC_RDPS_AirTemp_IsbL-0150_RLatLon0.09_PT013H.grib2 2026-04-30 02:43 426K
20260430T00Z_MSC_RDPS_AirTemp_IsbL-0175_RLatLon0.09_PT013H.grib2 2026-04-30 02:43 414K
20260430T00Z_MSC_RDPS_AirTemp_IsbL-0200_RLatLon0.09_PT013H.grib2 2026-04-30 02:43 416K
20260430T00Z_MSC_RDPS_AirTemp_IsbL-0225_RLatLon0.09_PT013H.grib2 2026-04-30 02:43 420K
20260430T00Z_MSC_RDPS_AirTemp_IsbL-0250_RLatLon0.09_PT013H.grib2 2026-04-30 02:43 431K
20260430T00Z_MSC_RDPS_AirTemp_IsbL-0275_RLatLon0.09_PT013H.grib2 2026-04-30 02:43 410K
20260430T00Z_MSC_RDPS_AirTemp_IsbL-0300_RLatLon0.09_PT013H.grib2 2026-04-30 02:43 414K
20260430T00Z_MSC_RDPS_AirTemp_IsbL-0350_RLatLon0.09_PT013H.grib2 2026-04-30 02:43 427K
20260430T00Z_MSC_RDPS_AirTemp_IsbL-0400_RLatLon0.09_PT013H.grib2 2026-04-30 02:43 428K
20260430T00Z_MSC_RDPS_AirTemp_IsbL-0450_RLatLon0.09_PT013H.grib2 2026-04-30 02:43 435K
20260430T00Z_MSC_RDPS_AirTemp_IsbL-0500_RLatLon0.09_PT013H.grib2 2026-04-30 02:43 410K
20260430T00Z_MSC_RDPS_AirTemp_IsbL-0550_RLatLon0.09_PT013H.grib2 2026-04-30 02:43 427K
20260430T00Z_MSC_RDPS_AirTemp_IsbL-0600_RLatLon0.09_PT013H.grib2 2026-04-30 02:43 448K
20260430T00Z_MSC_RDPS_AirTemp_IsbL-0650_RLatLon0.09_PT013H.grib2 2026-04-30 02:43 462K
20260430T00Z_MSC_RDPS_AirTemp_IsbL-0700_RLatLon0.09_PT013H.grib2 2026-04-30 02:43 486K
20260430T00Z_MSC_RDPS_AirTemp_IsbL-0750_RLatLon0.09_PT013H.grib2 2026-04-30 02:43 521K
20260430T00Z_MSC_RDPS_AirTemp_IsbL-0800_RLatLon0.09_PT013H.grib2 2026-04-30 02:43 449K
20260430T00Z_MSC_RDPS_AirTemp_IsbL-0850_RLatLon0.09_PT013H.grib2 2026-04-30 02:43 500K
20260430T00Z_MSC_RDPS_AirTemp_IsbL-0875_RLatLon0.09_PT013H.grib2 2026-04-30 02:43 521K
20260430T00Z_MSC_RDPS_AirTemp_IsbL-0900_RLatLon0.09_PT013H.grib2 2026-04-30 02:43 530K
20260430T00Z_MSC_RDPS_AirTemp_IsbL-0925_RLatLon0.09_PT013H.grib2 2026-04-30 02:43 528K
20260430T00Z_MSC_RDPS_AirTemp_IsbL-0950_RLatLon0.09_PT013H.grib2 2026-04-30 02:43 531K
20260430T00Z_MSC_RDPS_AirTemp_IsbL-0970_RLatLon0.09_PT013H.grib2 2026-04-30 02:43 526K
20260430T00Z_MSC_RDPS_AirTemp_IsbL-0985_RLatLon0.09_PT013H.grib2 2026-04-30 02:43 511K
20260430T00Z_MSC_RDPS_AirTemp_IsbL-1000_RLatLon0.09_PT013H.grib2 2026-04-30 02:43 492K
20260430T00Z_MSC_RDPS_AirTemp_IsbL-1015_RLatLon0.09_PT013H.grib2 2026-04-30 02:43 491K
20260430T00Z_MSC_RDPS_Albedo_Sfc_RLatLon0.09_PT013H.grib2 2026-04-30 02:43 156K
20260430T00Z_MSC_RDPS_CAPE_Sfc_RLatLon0.09_PT013H.grib2 2026-04-30 02:43 1.5M
20260430T00Z_MSC_RDPS_CIN_Sfc_RLatLon0.09_PT013H.grib2 2026-04-30 02:43 1.0M
20260430T00Z_MSC_RDPS_CloudWater_EAtm_RLatLon0.09_PT013H.grib2 2026-04-30 02:43 218K
20260430T00Z_MSC_RDPS_ConvectivePrecip-Accum_Sfc_RLatLon0.09_PT013H.grib2 2026-04-30 02:43 619K
20260430T00Z_MSC_RDPS_DewPointDepression_AGL-2m_RLatLon0.09_PT013H.grib2 2026-04-30 02:43 402K
20260430T00Z_MSC_RDPS_DewPointDepression_IsbL-0001_RLatLon0.09_PT013H.grib2 2026-04-30 02:43 193
20260430T00Z_MSC_RDPS_DewPointDepression_IsbL-0005_RLatLon0.09_PT013H.grib2 2026-04-30 02:43 193
20260430T00Z_MSC_RDPS_DewPointDepression_IsbL-0010_RLatLon0.09_PT013H.grib2 2026-04-30 02:43 193
20260430T00Z_MSC_RDPS_DewPointDepression_IsbL-0020_RLatLon0.09_PT013H.grib2 2026-04-30 02:43 193
20260430T00Z_MSC_RDPS_DewPointDepression_IsbL-0030_RLatLon0.09_PT013H.grib2 2026-04-30 02:43 193
20260430T00Z_MSC_RDPS_DewPointDepression_IsbL-0050_RLatLon0.09_PT013H.grib2 2026-04-30 02:43 84K
20260430T00Z_MSC_RDPS_DewPointDepression_IsbL-0100_RLatLon0.09_PT013H.grib2 2026-04-30 02:43 131K
20260430T00Z_MSC_RDPS_DewPointDepression_IsbL-0150_RLatLon0.09_PT013H.grib2 2026-04-30 02:43 149K
20260430T00Z_MSC_RDPS_DewPointDepression_IsbL-0175_RLatLon0.09_PT013H.grib2 2026-04-30 02:43 179K
20260430T00Z_MSC_RDPS_DewPointDepression_IsbL-0200_RLatLon0.09_PT013H.grib2 2026-04-30 02:43 218K
20260430T00Z_MSC_RDPS_DewPointDepression_IsbL-0225_RLatLon0.09_PT013H.grib2 2026-04-30 02:43 264K
20260430T00Z_MSC_RDPS_DewPointDepression_IsbL-0250_RLatLon0.09_PT013H.grib2 2026-04-30 02:43 305K
20260430T00Z_MSC_RDPS_DewPointDepression_IsbL-0275_RLatLon0.09_PT013H.grib2 2026-04-30 02:43 311K
20260430T00Z_MSC_RDPS_DewPointDepression_IsbL-0300_RLatLon0.09_PT013H.grib2 2026-04-30 02:43 331K
20260430T00Z_MSC_RDPS_DewPointDepression_IsbL-0350_RLatLon0.09_PT013H.grib2 2026-04-30 02:43 335K
20260430T00Z_MSC_RDPS_DewPointDepression_IsbL-0400_RLatLon0.09_PT013H.grib2 2026-04-30 02:43 341K
20260430T00Z_MSC_RDPS_DewPointDepression_IsbL-0450_RLatLon0.09_PT013H.grib2 2026-04-30 02:43 347K
20260430T00Z_MSC_RDPS_DewPointDepression_IsbL-0500_RLatLon0.09_PT013H.grib2 2026-04-30 02:43 349K
20260430T00Z_MSC_RDPS_DewPointDepression_IsbL-0550_RLatLon0.09_PT013H.grib2 2026-04-30 02:43 359K
20260430T00Z_MSC_RDPS_DewPointDepression_IsbL-0600_RLatLon0.09_PT013H.grib2 2026-04-30 02:43 374K
20260430T00Z_MSC_RDPS_DewPointDepression_IsbL-0650_RLatLon0.09_PT013H.grib2 2026-04-30 02:43 382K
20260430T00Z_MSC_RDPS_DewPointDepression_IsbL-0700_RLatLon0.09_PT013H.grib2 2026-04-30 02:43 388K
20260430T00Z_MSC_RDPS_DewPointDepression_IsbL-0750_RLatLon0.09_PT013H.grib2 2026-04-30 02:43 406K
20260430T00Z_MSC_RDPS_DewPointDepression_IsbL-0800_RLatLon0.09_PT013H.grib2 2026-04-30 02:43 435K
20260430T00Z_MSC_RDPS_DewPointDepression_IsbL-0850_RLatLon0.09_PT013H.grib2 2026-04-30 02:43 466K
20260430T00Z_MSC_RDPS_DewPointDepression_IsbL-0875_RLatLon0.09_PT013H.grib2 2026-04-30 02:43 468K
20260430T00Z_MSC_RDPS_DewPointDepression_IsbL-0900_RLatLon0.09_PT013H.grib2 2026-04-30 02:43 460K
20260430T00Z_MSC_RDPS_DewPointDepression_IsbL-0925_RLatLon0.09_PT013H.grib2 2026-04-30 02:43 448K
20260430T00Z_MSC_RDPS_DewPointDepression_IsbL-0950_RLatLon0.09_PT013H.grib2 2026-04-30 02:43 445K
20260430T00Z_MSC_RDPS_DewPointDepression_IsbL-0970_RLatLon0.09_PT013H.grib2 2026-04-30 02:43 438K
20260430T00Z_MSC_RDPS_DewPointDepression_IsbL-0985_RLatLon0.09_PT013H.grib2 2026-04-30 02:43 431K
20260430T00Z_MSC_RDPS_DewPointDepression_IsbL-1000_RLatLon0.09_PT013H.grib2 2026-04-30 02:43 426K
20260430T00Z_MSC_RDPS_DewPointDepression_IsbL-1015_RLatLon0.09_PT013H.grib2 2026-04-30 02:43 417K
20260430T00Z_MSC_RDPS_DewPoint_AGL-2m_RLatLon0.09_PT013H.grib2 2026-04-30 02:43 309K
20260430T00Z_MSC_RDPS_DownwardLongwaveRadiationFlux-Accum_Sfc_RLatLon0.09_PT013H.grib2 2026-04-30 02:43 470K
20260430T00Z_MSC_RDPS_DownwardShortwaveRadiationFlux-Accum_NTAtm_RLatLon0.09_PT013H.grib2 2026-04-30 02:43 119K
20260430T00Z_MSC_RDPS_DownwardShortwaveRadiationFlux-Accum_Sfc_RLatLon0.09_PT013H.grib2 2026-04-30 02:43 419K
20260430T00Z_MSC_RDPS_FreezingRain-Accum1h_Sfc_RLatLon0.09_PT013H.grib2 2026-04-30 02:43 37K
20260430T00Z_MSC_RDPS_FreezingRain-Accum_Sfc_RLatLon0.09_PT013H.grib2 2026-04-30 02:43 97K
20260430T00Z_MSC_RDPS_GeopotentialHeight_IsbL-0001_RLatLon0.09_PT013H.grib2 2026-04-30 02:43 314K
20260430T00Z_MSC_RDPS_GeopotentialHeight_IsbL-0005_RLatLon0.09_PT013H.grib2 2026-04-30 02:43 303K
20260430T00Z_MSC_RDPS_GeopotentialHeight_IsbL-0010_RLatLon0.09_PT013H.grib2 2026-04-30 02:43 305K
20260430T00Z_MSC_RDPS_GeopotentialHeight_IsbL-0020_RLatLon0.09_PT013H.grib2 2026-04-30 02:43 304K
20260430T00Z_MSC_RDPS_GeopotentialHeight_IsbL-0030_RLatLon0.09_PT013H.grib2 2026-04-30 02:43 304K
20260430T00Z_MSC_RDPS_GeopotentialHeight_IsbL-0050_RLatLon0.09_PT013H.grib2 2026-04-30 02:43 307K
20260430T00Z_MSC_RDPS_GeopotentialHeight_IsbL-0100_RLatLon0.09_PT013H.grib2 2026-04-30 02:43 285K
20260430T00Z_MSC_RDPS_GeopotentialHeight_IsbL-0150_RLatLon0.09_PT013H.grib2 2026-04-30 02:43 229K
20260430T00Z_MSC_RDPS_GeopotentialHeight_IsbL-0175_RLatLon0.09_PT013H.grib2 2026-04-30 02:43 231K
20260430T00Z_MSC_RDPS_GeopotentialHeight_IsbL-0200_RLatLon0.09_PT013H.grib2 2026-04-30 02:43 264K
20260430T00Z_MSC_RDPS_GeopotentialHeight_IsbL-0225_RLatLon0.09_PT013H.grib2 2026-04-30 02:43 266K
20260430T00Z_MSC_RDPS_GeopotentialHeight_IsbL-0250_RLatLon0.09_PT013H.grib2 2026-04-30 02:43 268K
20260430T00Z_MSC_RDPS_GeopotentialHeight_IsbL-0275_RLatLon0.09_PT013H.grib2 2026-04-30 02:43 267K
20260430T00Z_MSC_RDPS_GeopotentialHeight_IsbL-0300_RLatLon0.09_PT013H.grib2 2026-04-30 02:43 236K
20260430T00Z_MSC_RDPS_GeopotentialHeight_IsbL-0350_RLatLon0.09_PT013H.grib2 2026-04-30 02:43 232K
20260430T00Z_MSC_RDPS_GeopotentialHeight_IsbL-0400_RLatLon0.09_PT013H.grib2 2026-04-30 02:43 229K
20260430T00Z_MSC_RDPS_GeopotentialHeight_IsbL-0450_RLatLon0.09_PT013H.grib2 2026-04-30 02:43 297K
20260430T00Z_MSC_RDPS_GeopotentialHeight_IsbL-0500_RLatLon0.09_PT013H.grib2 2026-04-30 02:43 292K
20260430T00Z_MSC_RDPS_GeopotentialHeight_IsbL-0550_RLatLon0.09_PT013H.grib2 2026-04-30 02:43 288K
20260430T00Z_MSC_RDPS_GeopotentialHeight_IsbL-0600_RLatLon0.09_PT013H.grib2 2026-04-30 02:43 284K
20260430T00Z_MSC_RDPS_GeopotentialHeight_IsbL-0650_RLatLon0.09_PT013H.grib2 2026-04-30 02:43 253K
20260430T00Z_MSC_RDPS_GeopotentialHeight_IsbL-0700_RLatLon0.09_PT013H.grib2 2026-04-30 02:43 332K
20260430T00Z_MSC_RDPS_GeopotentialHeight_IsbL-0750_RLatLon0.09_PT013H.grib2 2026-04-30 02:43 335K
20260430T00Z_MSC_RDPS_GeopotentialHeight_IsbL-0800_RLatLon0.09_PT013H.grib2 2026-04-30 02:43 342K
20260430T00Z_MSC_RDPS_GeopotentialHeight_IsbL-0850_RLatLon0.09_PT013H.grib2 2026-04-30 02:43 384K
20260430T00Z_MSC_RDPS_GeopotentialHeight_IsbL-0875_RLatLon0.09_PT013H.grib2 2026-04-30 02:43 388K
20260430T00Z_MSC_RDPS_GeopotentialHeight_IsbL-0900_RLatLon0.09_PT013H.grib2 2026-04-30 02:43 392K
20260430T00Z_MSC_RDPS_GeopotentialHeight_IsbL-0925_RLatLon0.09_PT013H.grib2 2026-04-30 02:43 396K
20260430T00Z_MSC_RDPS_GeopotentialHeight_IsbL-0950_RLatLon0.09_PT013H.grib2 2026-04-30 02:43 400K
20260430T00Z_MSC_RDPS_GeopotentialHeight_IsbL-0970_RLatLon0.09_PT013H.grib2 2026-04-30 02:43 407K
20260430T00Z_MSC_RDPS_GeopotentialHeight_IsbL-0985_RLatLon0.09_PT013H.grib2 2026-04-30 02:43 416K
20260430T00Z_MSC_RDPS_GeopotentialHeight_IsbL-1000_RLatLon0.09_PT013H.grib2 2026-04-30 02:43 429K
20260430T00Z_MSC_RDPS_GeopotentialHeight_IsbL-1015_RLatLon0.09_PT013H.grib2 2026-04-30 02:43 445K
20260430T00Z_MSC_RDPS_Humidex_Sfc_RLatLon0.09_PT013H.grib2 2026-04-30 02:43 2.4M
20260430T00Z_MSC_RDPS_IcePellets-Accum1h_Sfc_RLatLon0.09_PT013H.grib2 2026-04-30 02:43 2.9K
20260430T00Z_MSC_RDPS_IcePellets-Accum_Sfc_RLatLon0.09_PT013H.grib2 2026-04-30 02:43 5.1K
20260430T00Z_MSC_RDPS_KIndex_Sfc_RLatLon0.09_PT013H.grib2 2026-04-30 02:43 2.3M
20260430T00Z_MSC_RDPS_LatentHeatNetFlux_Sfc_RLatLon0.09_PT013H.grib2 2026-04-30 02:43 426K
20260430T00Z_MSC_RDPS_LiftedIndex-MU-VT_IsbL-0500_RLatLon0.09_PT013H.grib2 2026-04-30 02:43 2.4M
20260430T00Z_MSC_RDPS_NetLongwaveRadiationFlux-Accum_Sfc_RLatLon0.09_PT013H.grib2 2026-04-30 02:43 606K
20260430T00Z_MSC_RDPS_NetShortwaveRadiationFlux-Accum_Sfc_RLatLon0.09_PT013H.grib2 2026-04-30 02:43 529K
20260430T00Z_MSC_RDPS_PlanetaryBoundaryLayerHeight_Sfc_RLatLon0.09_PT013H.grib2 2026-04-30 02:43 1.1M
20260430T00Z_MSC_RDPS_Precip-Accum1h_Sfc_RLatLon0.09_PT013H.grib2 2026-04-30 02:43 1.2M
20260430T00Z_MSC_RDPS_Precip-Accum_Sfc_RLatLon0.09_PT013H.grib2 2026-04-30 02:43 1.5M
20260430T00Z_MSC_RDPS_PrecipRate_Sfc_RLatLon0.09_PT013H.grib2 2026-04-30 02:43 179K
20260430T00Z_MSC_RDPS_PrecipType-Instant_Sfc_RLatLon0.09_PT013H.grib2 2026-04-30 02:43 571K
20260430T00Z_MSC_RDPS_Pressure-Trend3h_Sfc_RLatLon0.09_PT013H.grib2 2026-04-30 02:43 1.2M
20260430T00Z_MSC_RDPS_Pressure_MSL_RLatLon0.09_PT013H.grib2 2026-04-30 02:43 293K
20260430T00Z_MSC_RDPS_Pressure_PVU-1.5_RLatLon0.09_PT013H.grib2 2026-04-30 02:43 2.3M
20260430T00Z_MSC_RDPS_Pressure_PVU-1_RLatLon0.09_PT013H.grib2 2026-04-30 02:43 2.4M
20260430T00Z_MSC_RDPS_Pressure_PVU-2_RLatLon0.09_PT013H.grib2 2026-04-30 02:43 2.3M
20260430T00Z_MSC_RDPS_Pressure_Sfc_RLatLon0.09_PT013H.grib2 2026-04-30 02:43 501K
20260430T00Z_MSC_RDPS_RadiativeTemp_Sfc_RLatLon0.09_PT013H.grib2 2026-04-30 02:43 307K
20260430T00Z_MSC_RDPS_Rain-Accum1h_Sfc_RLatLon0.09_PT013H.grib2 2026-04-30 02:43 589K
20260430T00Z_MSC_RDPS_Rain-Accum_Sfc_RLatLon0.09_PT013H.grib2 2026-04-30 02:43 1.1M
20260430T00Z_MSC_RDPS_RelativeHumidity_AGL-2m_RLatLon0.09_PT013H.grib2 2026-04-30 02:43 1.0M
20260430T00Z_MSC_RDPS_RelativeHumidity_IsbL-0010_RLatLon0.09_PT013H.grib2 2026-04-30 02:43 645K
20260430T00Z_MSC_RDPS_RelativeHumidity_IsbL-0020_RLatLon0.09_PT013H.grib2 2026-04-30 02:43 689K
20260430T00Z_MSC_RDPS_RelativeHumidity_IsbL-0030_RLatLon0.09_PT013H.grib2 2026-04-30 02:43 603K
20260430T00Z_MSC_RDPS_RelativeHumidity_IsbL-0050_RLatLon0.09_PT013H.grib2 2026-04-30 02:43 371K
20260430T00Z_MSC_RDPS_RelativeHumidity_IsbL-0100_RLatLon0.09_PT013H.grib2 2026-04-30 02:43 287K
20260430T00Z_MSC_RDPS_RelativeHumidity_IsbL-0150_RLatLon0.09_PT013H.grib2 2026-04-30 02:43 410K
20260430T00Z_MSC_RDPS_RelativeHumidity_IsbL-0175_RLatLon0.09_PT013H.grib2 2026-04-30 02:43 478K
20260430T00Z_MSC_RDPS_RelativeHumidity_IsbL-0200_RLatLon0.09_PT013H.grib2 2026-04-30 02:43 555K
20260430T00Z_MSC_RDPS_RelativeHumidity_IsbL-0225_RLatLon0.09_PT013H.grib2 2026-04-30 02:43 629K
20260430T00Z_MSC_RDPS_RelativeHumidity_IsbL-0250_RLatLon0.09_PT013H.grib2 2026-04-30 02:43 705K
20260430T00Z_MSC_RDPS_RelativeHumidity_IsbL-0275_RLatLon0.09_PT013H.grib2 2026-04-30 02:43 732K
20260430T00Z_MSC_RDPS_RelativeHumidity_IsbL-0300_RLatLon0.09_PT013H.grib2 2026-04-30 02:43 775K
20260430T00Z_MSC_RDPS_RelativeHumidity_IsbL-0350_RLatLon0.09_PT013H.grib2 2026-04-30 02:43 792K
20260430T00Z_MSC_RDPS_RelativeHumidity_IsbL-0400_RLatLon0.09_PT013H.grib2 2026-04-30 02:43 802K
20260430T00Z_MSC_RDPS_RelativeHumidity_IsbL-0450_RLatLon0.09_PT013H.grib2 2026-04-30 02:43 805K
20260430T00Z_MSC_RDPS_RelativeHumidity_IsbL-0500_RLatLon0.09_PT013H.grib2 2026-04-30 02:43 807K
20260430T00Z_MSC_RDPS_RelativeHumidity_IsbL-0550_RLatLon0.09_PT013H.grib2 2026-04-30 02:43 833K
20260430T00Z_MSC_RDPS_RelativeHumidity_IsbL-0600_RLatLon0.09_PT013H.grib2 2026-04-30 02:43 855K
20260430T00Z_MSC_RDPS_RelativeHumidity_IsbL-0650_RLatLon0.09_PT013H.grib2 2026-04-30 02:43 870K
20260430T00Z_MSC_RDPS_RelativeHumidity_IsbL-0700_RLatLon0.09_PT013H.grib2 2026-04-30 02:43 893K
20260430T00Z_MSC_RDPS_RelativeHumidity_IsbL-0750_RLatLon0.09_PT013H.grib2 2026-04-30 02:43 930K
20260430T00Z_MSC_RDPS_RelativeHumidity_IsbL-0800_RLatLon0.09_PT013H.grib2 2026-04-30 02:43 1.0M
20260430T00Z_MSC_RDPS_RelativeHumidity_IsbL-0850_RLatLon0.09_PT013H.grib2 2026-04-30 02:43 1.0M
20260430T00Z_MSC_RDPS_RelativeHumidity_IsbL-0875_RLatLon0.09_PT013H.grib2 2026-04-30 02:43 1.1M
20260430T00Z_MSC_RDPS_RelativeHumidity_IsbL-0900_RLatLon0.09_PT013H.grib2 2026-04-30 02:43 1.1M
20260430T00Z_MSC_RDPS_RelativeHumidity_IsbL-0925_RLatLon0.09_PT013H.grib2 2026-04-30 02:43 1.1M
20260430T00Z_MSC_RDPS_RelativeHumidity_IsbL-0950_RLatLon0.09_PT013H.grib2 2026-04-30 02:43 1.1M
20260430T00Z_MSC_RDPS_RelativeHumidity_IsbL-0970_RLatLon0.09_PT013H.grib2 2026-04-30 02:43 1.1M
20260430T00Z_MSC_RDPS_RelativeHumidity_IsbL-0985_RLatLon0.09_PT013H.grib2 2026-04-30 02:43 1.0M
20260430T00Z_MSC_RDPS_RelativeHumidity_IsbL-1000_RLatLon0.09_PT013H.grib2 2026-04-30 02:43 1.0M
20260430T00Z_MSC_RDPS_RelativeHumidity_IsbL-1015_RLatLon0.09_PT013H.grib2 2026-04-30 02:43 1.0M
20260430T00Z_MSC_RDPS_Runoff-Accum_Sfc_RLatLon0.09_PT013H.grib2 2026-04-30 02:43 33K
20260430T00Z_MSC_RDPS_SWEATIndex_Sfc_RLatLon0.09_PT013H.grib2 2026-04-30 02:43 2.4M
20260430T00Z_MSC_RDPS_SeeingIndex_EAtm_RLatLon0.09_PT013H.grib2 2026-04-30 02:43 1.1M
20260430T00Z_MSC_RDPS_SensibleHeatNetFlux_Sfc_RLatLon0.09_PT013H.grib2 2026-04-30 02:43 315K
20260430T00Z_MSC_RDPS_ShowalterIndex_IsbL-0500_RLatLon0.09_PT013H.grib2 2026-04-30 02:43 2.6M
20260430T00Z_MSC_RDPS_SkyTransparencyIndex_EAtm_RLatLon0.09_PT013H.grib2 2026-04-30 02:43 684K
20260430T00Z_MSC_RDPS_Snow-Accum1h_Sfc_RLatLon0.09_PT013H.grib2 2026-04-30 02:43 424K
20260430T00Z_MSC_RDPS_Snow-Accum_Sfc_RLatLon0.09_PT013H.grib2 2026-04-30 02:43 611K
20260430T00Z_MSC_RDPS_SnowDensity_Sfc_RLatLon0.09_PT013H.grib2 2026-04-30 02:43 173K
20260430T00Z_MSC_RDPS_SnowDepth_Sfc_RLatLon0.09_PT013H.grib2 2026-04-30 02:43 679K
20260430T00Z_MSC_RDPS_SoilTemp_DBS-0to10cm_RLatLon0.09_PT013H.grib2 2026-04-30 02:43 214K
20260430T00Z_MSC_RDPS_SoilTemp_Sfc_RLatLon0.09_PT013H.grib2 2026-04-30 02:43 276K
20260430T00Z_MSC_RDPS_SoilVolumetricIceContent_Sfc_RLatLon0.09_PT013H.grib2 2026-04-30 02:43 166K
20260430T00Z_MSC_RDPS_SoilVolumetricWaterContent_DBS-0to10cm_RLatLon0.09_PT013H.grib2 2026-04-30 02:43 266K
20260430T00Z_MSC_RDPS_SoilVolumetricWaterContent_DBS-0to1cm_RLatLon0.09_PT013H.grib2 2026-04-30 02:43 332K
20260430T00Z_MSC_RDPS_SpecificHumidity_AGL-120m_RLatLon0.09_PT013H.grib2 2026-04-30 02:43 487K
20260430T00Z_MSC_RDPS_SpecificHumidity_AGL-2m_RLatLon0.09_PT013H.grib2 2026-04-30 02:43 652K
20260430T00Z_MSC_RDPS_SpecificHumidity_AGL-40m_RLatLon0.09_PT013H.grib2 2026-04-30 02:43 492K
20260430T00Z_MSC_RDPS_SpecificHumidity_AGL-80m_RLatLon0.09_PT013H.grib2 2026-04-30 02:43 489K
20260430T00Z_MSC_RDPS_SpecificHumidity_IsbL-0001_RLatLon0.09_PT013H.grib2 2026-04-30 02:43 345K
20260430T00Z_MSC_RDPS_SpecificHumidity_IsbL-0005_RLatLon0.09_PT013H.grib2 2026-04-30 02:43 359K
20260430T00Z_MSC_RDPS_SpecificHumidity_IsbL-0010_RLatLon0.09_PT013H.grib2 2026-04-30 02:43 395K
20260430T00Z_MSC_RDPS_SpecificHumidity_IsbL-0020_RLatLon0.09_PT013H.grib2 2026-04-30 02:43 386K
20260430T00Z_MSC_RDPS_SpecificHumidity_IsbL-0030_RLatLon0.09_PT013H.grib2 2026-04-30 02:43 370K
20260430T00Z_MSC_RDPS_SpecificHumidity_IsbL-0050_RLatLon0.09_PT013H.grib2 2026-04-30 02:43 463K
20260430T00Z_MSC_RDPS_SpecificHumidity_IsbL-0100_RLatLon0.09_PT013H.grib2 2026-04-30 02:43 353K
20260430T00Z_MSC_RDPS_SpecificHumidity_IsbL-0150_RLatLon0.09_PT013H.grib2 2026-04-30 02:43 454K
20260430T00Z_MSC_RDPS_SpecificHumidity_IsbL-0175_RLatLon0.09_PT013H.grib2 2026-04-30 02:43 536K
20260430T00Z_MSC_RDPS_SpecificHumidity_IsbL-0200_RLatLon0.09_PT013H.grib2 2026-04-30 02:43 450K
20260430T00Z_MSC_RDPS_SpecificHumidity_IsbL-0225_RLatLon0.09_PT013H.grib2 2026-04-30 02:43 458K
20260430T00Z_MSC_RDPS_SpecificHumidity_IsbL-0250_RLatLon0.09_PT013H.grib2 2026-04-30 02:43 566K
20260430T00Z_MSC_RDPS_SpecificHumidity_IsbL-0275_RLatLon0.09_PT013H.grib2 2026-04-30 02:43 481K
20260430T00Z_MSC_RDPS_SpecificHumidity_IsbL-0300_RLatLon0.09_PT013H.grib2 2026-04-30 02:43 579K
20260430T00Z_MSC_RDPS_SpecificHumidity_IsbL-0350_RLatLon0.09_PT013H.grib2 2026-04-30 02:43 570K
20260430T00Z_MSC_RDPS_SpecificHumidity_IsbL-0400_RLatLon0.09_PT013H.grib2 2026-04-30 02:43 524K
20260430T00Z_MSC_RDPS_SpecificHumidity_IsbL-0450_RLatLon0.09_PT013H.grib2 2026-04-30 02:43 575K
20260430T00Z_MSC_RDPS_SpecificHumidity_IsbL-0500_RLatLon0.09_PT013H.grib2 2026-04-30 02:43 508K
20260430T00Z_MSC_RDPS_SpecificHumidity_IsbL-0550_RLatLon0.09_PT013H.grib2 2026-04-30 02:43 562K
20260430T00Z_MSC_RDPS_SpecificHumidity_IsbL-0600_RLatLon0.09_PT013H.grib2 2026-04-30 02:43 635K
20260430T00Z_MSC_RDPS_SpecificHumidity_IsbL-0650_RLatLon0.09_PT013H.grib2 2026-04-30 02:43 554K
20260430T00Z_MSC_RDPS_SpecificHumidity_IsbL-0700_RLatLon0.09_PT013H.grib2 2026-04-30 02:43 593K
20260430T00Z_MSC_RDPS_SpecificHumidity_IsbL-0750_RLatLon0.09_PT013H.grib2 2026-04-30 02:43 646K
20260430T00Z_MSC_RDPS_SpecificHumidity_IsbL-0800_RLatLon0.09_PT013H.grib2 2026-04-30 02:43 720K
20260430T00Z_MSC_RDPS_SpecificHumidity_IsbL-0850_RLatLon0.09_PT013H.grib2 2026-04-30 02:43 791K
20260430T00Z_MSC_RDPS_SpecificHumidity_IsbL-0875_RLatLon0.09_PT013H.grib2 2026-04-30 02:43 818K
20260430T00Z_MSC_RDPS_SpecificHumidity_IsbL-0900_RLatLon0.09_PT013H.grib2 2026-04-30 02:43 831K
20260430T00Z_MSC_RDPS_SpecificHumidity_IsbL-0925_RLatLon0.09_PT013H.grib2 2026-04-30 02:43 834K
20260430T00Z_MSC_RDPS_SpecificHumidity_IsbL-0950_RLatLon0.09_PT013H.grib2 2026-04-30 02:43 838K
20260430T00Z_MSC_RDPS_SpecificHumidity_IsbL-0970_RLatLon0.09_PT013H.grib2 2026-04-30 02:43 831K
20260430T00Z_MSC_RDPS_SpecificHumidity_IsbL-0985_RLatLon0.09_PT013H.grib2 2026-04-30 02:43 820K
20260430T00Z_MSC_RDPS_SpecificHumidity_IsbL-1000_RLatLon0.09_PT013H.grib2 2026-04-30 02:43 670K
20260430T00Z_MSC_RDPS_SpecificHumidity_IsbL-1015_RLatLon0.09_PT013H.grib2 2026-04-30 02:43 660K
20260430T00Z_MSC_RDPS_SpecificHumidity_Sfc_RLatLon0.09_PT013H.grib2 2026-04-30 02:43 296K
20260430T00Z_MSC_RDPS_StormRelativeHelicity_EtaL-10000_RLatLon0.09_PT013H.grib2 2026-04-30 02:43 1.2M
20260430T00Z_MSC_RDPS_StormSeverityIndex_EtaL-10000_RLatLon0.09_PT013H.grib2 2026-04-30 02:43 1.2M
20260430T00Z_MSC_RDPS_Thickness_IsbL-0850to0700_RLatLon0.09_PT013H.grib2 2026-04-30 02:43 177K
20260430T00Z_MSC_RDPS_Thickness_IsbL-1000to0500_RLatLon0.09_PT013H.grib2 2026-04-30 02:43 199K
20260430T00Z_MSC_RDPS_Thickness_IsbL-1000to0850_RLatLon0.09_PT013H.grib2 2026-04-30 02:43 263K
20260430T00Z_MSC_RDPS_TotalCloudCover_Sfc_RLatLon0.09_PT013H.grib2 2026-04-30 02:43 660K
20260430T00Z_MSC_RDPS_TotalTotalsIndex_Sfc_RLatLon0.09_PT013H.grib2 2026-04-30 02:43 2.3M
20260430T00Z_MSC_RDPS_UVIndex-ClearSky_Sfc_RLatLon0.09_PT013H.grib2 2026-04-30 02:43 192K
20260430T00Z_MSC_RDPS_UVIndex_Sfc_RLatLon0.09_PT013H.grib2 2026-04-30 02:43 406K
20260430T00Z_MSC_RDPS_UpwardLongwaveRadiationFlux_NTAtm_RLatLon0.09_PT013H.grib2 2026-04-30 02:43 491K
20260430T00Z_MSC_RDPS_UpwardShortwaveRadiationFlux_NTAtm_RLatLon0.09_PT013H.grib2 2026-04-30 02:43 351K
20260430T00Z_MSC_RDPS_VerticalVelocity_IsbL-0250_RLatLon0.09_PT013H.grib2 2026-04-30 02:43 559K
20260430T00Z_MSC_RDPS_VerticalVelocity_IsbL-0500_RLatLon0.09_PT013H.grib2 2026-04-30 02:43 549K
20260430T00Z_MSC_RDPS_VerticalVelocity_IsbL-0700_RLatLon0.09_PT013H.grib2 2026-04-30 02:43 589K
20260430T00Z_MSC_RDPS_VerticalVelocity_IsbL-0850_RLatLon0.09_PT013H.grib2 2026-04-30 02:43 685K
20260430T00Z_MSC_RDPS_VerticalWindShear_EtaL-6500_RLatLon0.09_PT013H.grib2 2026-04-30 02:43 1.2M
20260430T00Z_MSC_RDPS_WindChill_Sfc_RLatLon0.09_PT013H.grib2 2026-04-30 02:43 1.1M
20260430T00Z_MSC_RDPS_WindDir_AGL-10m_RLatLon0.09_PT013H.grib2 2026-04-30 02:43 1.0M
20260430T00Z_MSC_RDPS_WindDir_AGL-120m_RLatLon0.09_PT013H.grib2 2026-04-30 02:43 624K
20260430T00Z_MSC_RDPS_WindDir_AGL-40m_RLatLon0.09_PT013H.grib2 2026-04-30 02:43 653K
20260430T00Z_MSC_RDPS_WindDir_AGL-80m_RLatLon0.09_PT013H.grib2 2026-04-30 02:43 635K
20260430T00Z_MSC_RDPS_WindDir_IsbL-0001_RLatLon0.09_PT013H.grib2 2026-04-30 02:43 305K
20260430T00Z_MSC_RDPS_WindDir_IsbL-0005_RLatLon0.09_PT013H.grib2 2026-04-30 02:43 361K
20260430T00Z_MSC_RDPS_WindDir_IsbL-0010_RLatLon0.09_PT013H.grib2 2026-04-30 02:43 379K
20260430T00Z_MSC_RDPS_WindDir_IsbL-0020_RLatLon0.09_PT013H.grib2 2026-04-30 02:43 405K
20260430T00Z_MSC_RDPS_WindDir_IsbL-0030_RLatLon0.09_PT013H.grib2 2026-04-30 02:43 415K
20260430T00Z_MSC_RDPS_WindDir_IsbL-0050_RLatLon0.09_PT013H.grib2 2026-04-30 02:43 431K
20260430T00Z_MSC_RDPS_WindDir_IsbL-0100_RLatLon0.09_PT013H.grib2 2026-04-30 02:43 434K
20260430T00Z_MSC_RDPS_WindDir_IsbL-0150_RLatLon0.09_PT013H.grib2 2026-04-30 02:43 431K
20260430T00Z_MSC_RDPS_WindDir_IsbL-0175_RLatLon0.09_PT013H.grib2 2026-04-30 02:43 446K
20260430T00Z_MSC_RDPS_WindDir_IsbL-0200_RLatLon0.09_PT013H.grib2 2026-04-30 02:43 455K
20260430T00Z_MSC_RDPS_WindDir_IsbL-0225_RLatLon0.09_PT013H.grib2 2026-04-30 02:43 465K
20260430T00Z_MSC_RDPS_WindDir_IsbL-0250_RLatLon0.09_PT013H.grib2 2026-04-30 02:43 467K
20260430T00Z_MSC_RDPS_WindDir_IsbL-0275_RLatLon0.09_PT013H.grib2 2026-04-30 02:43 491K
20260430T00Z_MSC_RDPS_WindDir_IsbL-0300_RLatLon0.09_PT013H.grib2 2026-04-30 02:43 486K
20260430T00Z_MSC_RDPS_WindDir_IsbL-0350_RLatLon0.09_PT013H.grib2 2026-04-30 02:43 504K
20260430T00Z_MSC_RDPS_WindDir_IsbL-0400_RLatLon0.09_PT013H.grib2 2026-04-30 02:43 517K
20260430T00Z_MSC_RDPS_WindDir_IsbL-0450_RLatLon0.09_PT013H.grib2 2026-04-30 02:43 527K
20260430T00Z_MSC_RDPS_WindDir_IsbL-0500_RLatLon0.09_PT013H.grib2 2026-04-30 02:43 543K
20260430T00Z_MSC_RDPS_WindDir_IsbL-0550_RLatLon0.09_PT013H.grib2 2026-04-30 02:43 560K
20260430T00Z_MSC_RDPS_WindDir_IsbL-0600_RLatLon0.09_PT013H.grib2 2026-04-30 02:43 596K
20260430T00Z_MSC_RDPS_WindDir_IsbL-0650_RLatLon0.09_PT013H.grib2 2026-04-30 02:43 647K
20260430T00Z_MSC_RDPS_WindDir_IsbL-0700_RLatLon0.09_PT013H.grib2 2026-04-30 02:43 694K
20260430T00Z_MSC_RDPS_WindDir_IsbL-0750_RLatLon0.09_PT013H.grib2 2026-04-30 02:43 739K
20260430T00Z_MSC_RDPS_WindDir_IsbL-0800_RLatLon0.09_PT013H.grib2 2026-04-30 02:43 799K
20260430T00Z_MSC_RDPS_WindDir_IsbL-0850_RLatLon0.09_PT013H.grib2 2026-04-30 02:43 874K
20260430T00Z_MSC_RDPS_WindDir_IsbL-0875_RLatLon0.09_PT013H.grib2 2026-04-30 02:43 901K
20260430T00Z_MSC_RDPS_WindDir_IsbL-0900_RLatLon0.09_PT013H.grib2 2026-04-30 02:43 917K
20260430T00Z_MSC_RDPS_WindDir_IsbL-0925_RLatLon0.09_PT013H.grib2 2026-04-30 02:43 924K
20260430T00Z_MSC_RDPS_WindDir_IsbL-0950_RLatLon0.09_PT013H.grib2 2026-04-30 02:43 928K
20260430T00Z_MSC_RDPS_WindDir_IsbL-0970_RLatLon0.09_PT013H.grib2 2026-04-30 02:43 940K
20260430T00Z_MSC_RDPS_WindDir_IsbL-0985_RLatLon0.09_PT013H.grib2 2026-04-30 02:43 949K
20260430T00Z_MSC_RDPS_WindDir_IsbL-1000_RLatLon0.09_PT013H.grib2 2026-04-30 02:43 963K
20260430T00Z_MSC_RDPS_WindDir_IsbL-1015_RLatLon0.09_PT013H.grib2 2026-04-30 02:43 1.0M
20260430T00Z_MSC_RDPS_WindGust-Max_AGL-10m_RLatLon0.09_PT013H.grib2 2026-04-30 02:43 1.0M
20260430T00Z_MSC_RDPS_WindGust-Min_AGL-10m_RLatLon0.09_PT013H.grib2 2026-04-30 02:43 972K
20260430T00Z_MSC_RDPS_WindGust_AGL-10m_RLatLon0.09_PT013H.grib2 2026-04-30 02:43 1.0M
20260430T00Z_MSC_RDPS_WindSpeed_AGL-10m_RLatLon0.09_PT013H.grib2 2026-04-30 02:43 842K
20260430T00Z_MSC_RDPS_WindSpeed_AGL-120m_RLatLon0.09_PT013H.grib2 2026-04-30 02:43 543K
20260430T00Z_MSC_RDPS_WindSpeed_AGL-40m_RLatLon0.09_PT013H.grib2 2026-04-30 02:43 543K
20260430T00Z_MSC_RDPS_WindSpeed_AGL-80m_RLatLon0.09_PT013H.grib2 2026-04-30 02:43 543K
20260430T00Z_MSC_RDPS_WindSpeed_IsbL-0001_RLatLon0.09_PT013H.grib2 2026-04-30 02:43 252K
20260430T00Z_MSC_RDPS_WindSpeed_IsbL-0005_RLatLon0.09_PT013H.grib2 2026-04-30 02:43 292K
20260430T00Z_MSC_RDPS_WindSpeed_IsbL-0010_RLatLon0.09_PT013H.grib2 2026-04-30 02:43 396K
20260430T00Z_MSC_RDPS_WindSpeed_IsbL-0020_RLatLon0.09_PT013H.grib2 2026-04-30 02:43 318K
20260430T00Z_MSC_RDPS_WindSpeed_IsbL-0030_RLatLon0.09_PT013H.grib2 2026-04-30 02:43 321K
20260430T00Z_MSC_RDPS_WindSpeed_IsbL-0050_RLatLon0.09_PT013H.grib2 2026-04-30 02:43 349K
20260430T00Z_MSC_RDPS_WindSpeed_IsbL-0100_RLatLon0.09_PT013H.grib2 2026-04-30 02:43 478K
20260430T00Z_MSC_RDPS_WindSpeed_IsbL-0150_RLatLon0.09_PT013H.grib2 2026-04-30 02:43 386K
20260430T00Z_MSC_RDPS_WindSpeed_IsbL-0175_RLatLon0.09_PT013H.grib2 2026-04-30 02:43 433K
20260430T00Z_MSC_RDPS_WindSpeed_IsbL-0200_RLatLon0.09_PT013H.grib2 2026-04-30 02:43 448K
20260430T00Z_MSC_RDPS_WindSpeed_IsbL-0225_RLatLon0.09_PT013H.grib2 2026-04-30 02:43 454K
20260430T00Z_MSC_RDPS_WindSpeed_IsbL-0250_RLatLon0.09_PT013H.grib2 2026-04-30 02:43 459K
20260430T00Z_MSC_RDPS_WindSpeed_IsbL-0275_RLatLon0.09_PT013H.grib2 2026-04-30 02:43 477K
20260430T00Z_MSC_RDPS_WindSpeed_IsbL-0300_RLatLon0.09_PT013H.grib2 2026-04-30 02:43 472K
20260430T00Z_MSC_RDPS_WindSpeed_IsbL-0350_RLatLon0.09_PT013H.grib2 2026-04-30 02:43 485K
20260430T00Z_MSC_RDPS_WindSpeed_IsbL-0400_RLatLon0.09_PT013H.grib2 2026-04-30 02:43 487K
20260430T00Z_MSC_RDPS_WindSpeed_IsbL-0450_RLatLon0.09_PT013H.grib2 2026-04-30 02:43 470K
20260430T00Z_MSC_RDPS_WindSpeed_IsbL-0500_RLatLon0.09_PT013H.grib2 2026-04-30 02:43 470K
20260430T00Z_MSC_RDPS_WindSpeed_IsbL-0550_RLatLon0.09_PT013H.grib2 2026-04-30 02:43 469K
20260430T00Z_MSC_RDPS_WindSpeed_IsbL-0600_RLatLon0.09_PT013H.grib2 2026-04-30 02:43 595K
20260430T00Z_MSC_RDPS_WindSpeed_IsbL-0650_RLatLon0.09_PT013H.grib2 2026-04-30 02:43 617K
20260430T00Z_MSC_RDPS_WindSpeed_IsbL-0700_RLatLon0.09_PT013H.grib2 2026-04-30 02:43 641K
20260430T00Z_MSC_RDPS_WindSpeed_IsbL-0750_RLatLon0.09_PT013H.grib2 2026-04-30 02:43 713K
20260430T00Z_MSC_RDPS_WindSpeed_IsbL-0800_RLatLon0.09_PT013H.grib2 2026-04-30 02:43 755K
20260430T00Z_MSC_RDPS_WindSpeed_IsbL-0850_RLatLon0.09_PT013H.grib2 2026-04-30 02:43 812K
20260430T00Z_MSC_RDPS_WindSpeed_IsbL-0875_RLatLon0.09_PT013H.grib2 2026-04-30 02:43 832K
20260430T00Z_MSC_RDPS_WindSpeed_IsbL-0900_RLatLon0.09_PT013H.grib2 2026-04-30 02:43 848K
20260430T00Z_MSC_RDPS_WindSpeed_IsbL-0925_RLatLon0.09_PT013H.grib2 2026-04-30 02:43 860K
20260430T00Z_MSC_RDPS_WindSpeed_IsbL-0950_RLatLon0.09_PT013H.grib2 2026-04-30 02:43 864K
20260430T00Z_MSC_RDPS_WindSpeed_IsbL-0970_RLatLon0.09_PT013H.grib2 2026-04-30 02:43 864K
20260430T00Z_MSC_RDPS_WindSpeed_IsbL-0985_RLatLon0.09_PT013H.grib2 2026-04-30 02:43 854K
20260430T00Z_MSC_RDPS_WindSpeed_IsbL-1000_RLatLon0.09_PT013H.grib2 2026-04-30 02:43 849K
20260430T00Z_MSC_RDPS_WindSpeed_IsbL-1015_RLatLon0.09_PT013H.grib2 2026-04-30 02:43 841K
20260430T00Z_MSC_RDPS_WindU_AGL-10m_RLatLon0.09_PT013H.grib2 2026-04-30 02:43 432K
20260430T00Z_MSC_RDPS_WindU_AGL-120m_RLatLon0.09_PT013H.grib2 2026-04-30 02:43 538K
20260430T00Z_MSC_RDPS_WindU_AGL-40m_RLatLon0.09_PT013H.grib2 2026-04-30 02:43 539K
20260430T00Z_MSC_RDPS_WindU_AGL-80m_RLatLon0.09_PT013H.grib2 2026-04-30 02:43 539K
20260430T00Z_MSC_RDPS_WindU_IsbL-0001_RLatLon0.09_PT013H.grib2 2026-04-30 02:43 290K
20260430T00Z_MSC_RDPS_WindU_IsbL-0005_RLatLon0.09_PT013H.grib2 2026-04-30 02:43 327K
20260430T00Z_MSC_RDPS_WindU_IsbL-0010_RLatLon0.09_PT013H.grib2 2026-04-30 02:43 294K
20260430T00Z_MSC_RDPS_WindU_IsbL-0020_RLatLon0.09_PT013H.grib2 2026-04-30 02:43 348K
20260430T00Z_MSC_RDPS_WindU_IsbL-0030_RLatLon0.09_PT013H.grib2 2026-04-30 02:43 312K
20260430T00Z_MSC_RDPS_WindU_IsbL-0050_RLatLon0.09_PT013H.grib2 2026-04-30 02:43 341K
20260430T00Z_MSC_RDPS_WindU_IsbL-0100_RLatLon0.09_PT013H.grib2 2026-04-30 02:43 434K
20260430T00Z_MSC_RDPS_WindU_IsbL-0150_RLatLon0.09_PT013H.grib2 2026-04-30 02:43 401K
20260430T00Z_MSC_RDPS_WindU_IsbL-0175_RLatLon0.09_PT013H.grib2 2026-04-30 02:43 425K
20260430T00Z_MSC_RDPS_WindU_IsbL-0200_RLatLon0.09_PT013H.grib2 2026-04-30 02:43 340K
20260430T00Z_MSC_RDPS_WindU_IsbL-0225_RLatLon0.09_PT013H.grib2 2026-04-30 02:43 346K
20260430T00Z_MSC_RDPS_WindU_IsbL-0250_RLatLon0.09_PT013H.grib2 2026-04-30 02:43 347K
20260430T00Z_MSC_RDPS_WindU_IsbL-0275_RLatLon0.09_PT013H.grib2 2026-04-30 02:43 363K
20260430T00Z_MSC_RDPS_WindU_IsbL-0300_RLatLon0.09_PT013H.grib2 2026-04-30 02:43 359K
20260430T00Z_MSC_RDPS_WindU_IsbL-0350_RLatLon0.09_PT013H.grib2 2026-04-30 02:43 472K
20260430T00Z_MSC_RDPS_WindU_IsbL-0400_RLatLon0.09_PT013H.grib2 2026-04-30 02:43 475K
20260430T00Z_MSC_RDPS_WindU_IsbL-0450_RLatLon0.09_PT013H.grib2 2026-04-30 02:43 474K
20260430T00Z_MSC_RDPS_WindU_IsbL-0500_RLatLon0.09_PT013H.grib2 2026-04-30 02:43 474K
20260430T00Z_MSC_RDPS_WindU_IsbL-0550_RLatLon0.09_PT013H.grib2 2026-04-30 02:43 474K
20260430T00Z_MSC_RDPS_WindU_IsbL-0600_RLatLon0.09_PT013H.grib2 2026-04-30 02:43 464K
20260430T00Z_MSC_RDPS_WindU_IsbL-0650_RLatLon0.09_PT013H.grib2 2026-04-30 02:43 484K
20260430T00Z_MSC_RDPS_WindU_IsbL-0700_RLatLon0.09_PT013H.grib2 2026-04-30 02:43 507K
20260430T00Z_MSC_RDPS_WindU_IsbL-0750_RLatLon0.09_PT013H.grib2 2026-04-30 02:43 533K
20260430T00Z_MSC_RDPS_WindU_IsbL-0800_RLatLon0.09_PT013H.grib2 2026-04-30 02:43 572K
20260430T00Z_MSC_RDPS_WindU_IsbL-0850_RLatLon0.09_PT013H.grib2 2026-04-30 02:43 621K
20260430T00Z_MSC_RDPS_WindU_IsbL-0875_RLatLon0.09_PT013H.grib2 2026-04-30 02:43 775K
20260430T00Z_MSC_RDPS_WindU_IsbL-0900_RLatLon0.09_PT013H.grib2 2026-04-30 02:43 650K
20260430T00Z_MSC_RDPS_WindU_IsbL-0925_RLatLon0.09_PT013H.grib2 2026-04-30 02:43 657K
20260430T00Z_MSC_RDPS_WindU_IsbL-0950_RLatLon0.09_PT013H.grib2 2026-04-30 02:43 656K
20260430T00Z_MSC_RDPS_WindU_IsbL-0970_RLatLon0.09_PT013H.grib2 2026-04-30 02:43 655K
20260430T00Z_MSC_RDPS_WindU_IsbL-0985_RLatLon0.09_PT013H.grib2 2026-04-30 02:43 791K
20260430T00Z_MSC_RDPS_WindU_IsbL-1000_RLatLon0.09_PT013H.grib2 2026-04-30 02:43 787K
20260430T00Z_MSC_RDPS_WindU_IsbL-1015_RLatLon0.09_PT013H.grib2 2026-04-30 02:43 827K
20260430T00Z_MSC_RDPS_WindV_AGL-10m_RLatLon0.09_PT013H.grib2 2026-04-30 02:43 433K
20260430T00Z_MSC_RDPS_WindV_AGL-120m_RLatLon0.09_PT013H.grib2 2026-04-30 02:43 537K
20260430T00Z_MSC_RDPS_WindV_AGL-40m_RLatLon0.09_PT013H.grib2 2026-04-30 02:43 538K
20260430T00Z_MSC_RDPS_WindV_AGL-80m_RLatLon0.09_PT013H.grib2 2026-04-30 02:43 537K
20260430T00Z_MSC_RDPS_WindV_IsbL-0001_RLatLon0.09_PT013H.grib2 2026-04-30 02:43 243K
20260430T00Z_MSC_RDPS_WindV_IsbL-0005_RLatLon0.09_PT013H.grib2 2026-04-30 02:43 284K
20260430T00Z_MSC_RDPS_WindV_IsbL-0010_RLatLon0.09_PT013H.grib2 2026-04-30 02:43 297K
20260430T00Z_MSC_RDPS_WindV_IsbL-0020_RLatLon0.09_PT013H.grib2 2026-04-30 02:43 312K
20260430T00Z_MSC_RDPS_WindV_IsbL-0030_RLatLon0.09_PT013H.grib2 2026-04-30 02:43 315K
20260430T00Z_MSC_RDPS_WindV_IsbL-0050_RLatLon0.09_PT013H.grib2 2026-04-30 02:43 342K
20260430T00Z_MSC_RDPS_WindV_IsbL-0100_RLatLon0.09_PT013H.grib2 2026-04-30 02:43 429K
20260430T00Z_MSC_RDPS_WindV_IsbL-0150_RLatLon0.09_PT013H.grib2 2026-04-30 02:43 400K
20260430T00Z_MSC_RDPS_WindV_IsbL-0175_RLatLon0.09_PT013H.grib2 2026-04-30 02:43 423K
20260430T00Z_MSC_RDPS_WindV_IsbL-0200_RLatLon0.09_PT013H.grib2 2026-04-30 02:43 338K
20260430T00Z_MSC_RDPS_WindV_IsbL-0225_RLatLon0.09_PT013H.grib2 2026-04-30 02:43 344K
20260430T00Z_MSC_RDPS_WindV_IsbL-0250_RLatLon0.09_PT013H.grib2 2026-04-30 02:43 346K
20260430T00Z_MSC_RDPS_WindV_IsbL-0275_RLatLon0.09_PT013H.grib2 2026-04-30 02:43 361K
20260430T00Z_MSC_RDPS_WindV_IsbL-0300_RLatLon0.09_PT013H.grib2 2026-04-30 02:43 356K
20260430T00Z_MSC_RDPS_WindV_IsbL-0350_RLatLon0.09_PT013H.grib2 2026-04-30 02:43 366K
20260430T00Z_MSC_RDPS_WindV_IsbL-0400_RLatLon0.09_PT013H.grib2 2026-04-30 02:43 472K
20260430T00Z_MSC_RDPS_WindV_IsbL-0450_RLatLon0.09_PT013H.grib2 2026-04-30 02:43 473K
20260430T00Z_MSC_RDPS_WindV_IsbL-0500_RLatLon0.09_PT013H.grib2 2026-04-30 02:43 473K
20260430T00Z_MSC_RDPS_WindV_IsbL-0550_RLatLon0.09_PT013H.grib2 2026-04-30 02:43 471K
20260430T00Z_MSC_RDPS_WindV_IsbL-0600_RLatLon0.09_PT013H.grib2 2026-04-30 02:43 463K
20260430T00Z_MSC_RDPS_WindV_IsbL-0650_RLatLon0.09_PT013H.grib2 2026-04-30 02:43 482K
20260430T00Z_MSC_RDPS_WindV_IsbL-0700_RLatLon0.09_PT013H.grib2 2026-04-30 02:43 503K
20260430T00Z_MSC_RDPS_WindV_IsbL-0750_RLatLon0.09_PT013H.grib2 2026-04-30 02:43 529K
20260430T00Z_MSC_RDPS_WindV_IsbL-0800_RLatLon0.09_PT013H.grib2 2026-04-30 02:43 566K
20260430T00Z_MSC_RDPS_WindV_IsbL-0850_RLatLon0.09_PT013H.grib2 2026-04-30 02:43 751K
20260430T00Z_MSC_RDPS_WindV_IsbL-0875_RLatLon0.09_PT013H.grib2 2026-04-30 02:43 772K
20260430T00Z_MSC_RDPS_WindV_IsbL-0900_RLatLon0.09_PT013H.grib2 2026-04-30 02:43 787K
20260430T00Z_MSC_RDPS_WindV_IsbL-0925_RLatLon0.09_PT013H.grib2 2026-04-30 02:43 797K
20260430T00Z_MSC_RDPS_WindV_IsbL-0950_RLatLon0.09_PT013H.grib2 2026-04-30 02:43 797K
20260430T00Z_MSC_RDPS_WindV_IsbL-0970_RLatLon0.09_PT013H.grib2 2026-04-30 02:43 796K
20260430T00Z_MSC_RDPS_WindV_IsbL-0985_RLatLon0.09_PT013H.grib2 2026-04-30 02:43 838K
20260430T00Z_MSC_RDPS_WindV_IsbL-1000_RLatLon0.09_PT013H.grib2 2026-04-30 02:43 833K
20260430T00Z_MSC_RDPS_WindV_IsbL-1015_RLatLon0.09_PT013H.grib2 2026-04-30 02:43 826K